Preview of NWS' New Version of Forecast
This preview is not operational and should not be used for support decisions.

Regional Weather Roundup (RWR)

Issued by Charleston, WV (RLX)

                            
000
ASUS41 KRLX 170510
RWRRLX
Regional Weather Roundup
National Weather Service Charleston WV
1200 AM EST MON DEC 17 2018

Note: "fair" indicates few or no clouds below 12,000 feet with no
significant weather and/or obstructions to visibility.

WVZ003-170600-
Northern Panhandle of West Virginia
  
CITY           SKY/WX    TMP DP  RH WIND       PRES   REMARKS
WHEELING       CLOUDY    40  34  79 W15G24    30.00S                  
$$

WVZ009-170600-
Northwest West Virginia
  
CITY           SKY/WX    TMP DP  RH WIND       PRES   REMARKS
PARKERSBURG    CLOUDY    42  37  82 W7        30.10F                  
$$

WVZ006-170600-
Western West Virginia
  
CITY           SKY/WX    TMP DP  RH WIND       PRES   REMARKS
HUNTINGTON     MOCLDY    43  40  89 SW7       30.12S                  
$$

WVZ015-170600-
West Central West Virginia
  
CITY           SKY/WX    TMP DP  RH WIND       PRES   REMARKS
CHARLESTON     CLOUDY    43  42  97 SW7       30.10F FOG              
$$

WVZ022-031-170600-
North Central West Virginia
  
CITY           SKY/WX    TMP DP  RH WIND       PRES   REMARKS
MORGANTOWN     CLOUDY    41  40  96 SW5       30.01F                  
CLARKSBURG     CLOUDY    44  38  79 W9        30.03S                  
BUCKHANNON     CLOUDY    41  41 100 W9G17     30.03S                  
$$

WVZ025-035-042-045-170600-
Southern West Virginia
  
CITY           SKY/WX    TMP DP  RH WIND       PRES   REMARKS
BECKLEY        CLOUDY    39  38  96 W13       30.06F                  
LOGAN          CLOUDY    41  41 100 VRB3G13   30.10F FOG              
PINEVILLE      MIX PCPN  42  41  95 MISG      30.15S                  
BLUEFIELD      CLOUDY    38  37  97 W13G21    30.07S FOG              
LEWISBURG      CLOUDY    41  37  86 W10G16    30.04S                  
$$

WVZ047-170600-
Northern Mountains of West Virginia
  
CITY           SKY/WX    TMP DP  RH WIND       PRES   REMARKS
ELKINS         CLOUDY    40  36  86 NW6       30.02S                  
$$

WVZ052-170600-
Eastern Panhandle of West Virginia
  
CITY           SKY/WX    TMP DP  RH WIND       PRES   REMARKS
MARTINSBURG    CLOUDY    45  38  76 W10       29.90S                  
PETERSBURG     FAIR      35  35  96 CALM      29.94S                  
$$

Southeast Ohio/Northeast Kentucky
  
CITY           SKY/WX    TMP DP  RH WIND       PRES   REMARKS
ATHENS         CLOUDY    41  41 100 SW6       30.09S                  
ASHLAND        CLOUDY    42  40  92 SW5       30.13S                  
$$